W0QQ Weather Reports


time (UTC)temp
F
wind
direction
speed
knots
gust
knots
rain 1hr
in
rain 24hr
in
rain mn
in
humidity
%
barometer
mb
20260505071614 53 30 1.7 10.4 0.03 0.09 0.09 73 1008.7
20260505070031 54 359 0.9 7.0 0.02 0.08 0.08 71 1008.6
20260505064620 54 75 3.5 7.0 0.02 0.08 0.08 71 1007.2
20260505063049 55 55 3.5 14.8 0.02 0.07 0.07 71 1006.3
20260505061502 57 26 5.2 11.3 0.06 0.06 0.06 73 1006.1
20260505060046 58 11 0.0 10.4 0.06 0.06 0.06 81 1005.8
20260505054511 59 11 1.7 4.3 0.06 0.06 0.06 81 1004.4
20260505053058 61 11 2.6 5.2 0.05 0.05 0.05 76 1004.4
20260505051508 63 11 3.5 8.7 0.00 0.00 0.00 67 1004.5
20260505041608 70 35 0.9 5.2 0.00 0.00 0.00 73 1003.1
20260505040012 71 11 2.6 8.7 0.00 0.00 0.00 72 1003.0
20260505034603 71 11 0.9 7.0 0.00 0.00 0.00 71 1002.7
20260505033014 71 11 1.7 8.7 0.00 0.00 0.00 71 1002.7
20260505031608 71 11 1.7 7.8 0.00 0.00 0.00 69 1002.6
20260505030028 71 182 0.9 3.5 0.00 0.00 0.00 67 1002.5
20260505024619 72 11 0.9 4.3 0.00 0.00 0.00 66 1002.3
20260505023024 72 11 0.0 4.3 0.00 0.00 0.00 64 1002.0
20260505021623 72 11 0.9 4.3 0.00 0.00 0.00 63 1001.8
20260505020050 73 11 0.9 4.3 0.00 0.00 0.00 61 1001.7
20260505014628 73 203 0.9 2.6 0.00 0.00 0.00 60 1001.6
20260505013041 74 11 0.0 2.6 0.00 0.00 0.00 59 1001.3
20260505011628 75 11 0.0 3.5 0.00 0.00 0.00 57 1001.1
20260505004626 77 215 0.0 0.9 0.00 0.00 0.00 55 1000.8
20260505003046 78 215 0.0 1.7 0.00 0.00 0.00 55 1000.6
20260505001629 79 215 0.0 2.6 0.00 0.00 0.00 55 1000.6
20260505000051 79 215 0.0 2.6 0.00 0.00 0.00 52 1000.6
20260504234633 79 226 0.0 2.6 0.00 0.00 0.00 50 1000.7
20260504233053 80 214 0.9 6.1 0.00 0.00 0.00 49 1000.7
20260504231630 80 11 1.7 7.8 0.00 0.00 0.00 50 1000.7
20260504230100 81 11 0.0 7.0 0.00 0.00 0.00 49 1000.7
20260504224508 81 11 2.6 7.8 0.00 0.00 0.00 50 1000.6
20260504223037 81 240 2.6 9.6 0.00 0.00 0.00 47 1000.6
20260504221631 80 252 3.5 9.6 0.00 0.00 0.00 49 1000.7
20260504220035 80 11 2.6 8.7 0.00 0.00 0.00 50 1000.9
20260504214624 80 11 3.5 11.3 0.00 0.00 0.00 52 1001.0
20260504213045 80 11 1.7 11.3 0.00 0.00 0.00 52 1001.2
20260504211623 81 11 5.2 13.0 0.00 0.00 0.00 52 1001.2
20260504210055 82 11 1.7 13.0 0.00 0.00 0.00 50 1001.2
20260504204632 84 192 3.5 7.0 0.00 0.00 0.00 47 1001.3
20260504203046 84 11 1.7 10.4 0.00 0.00 0.00 45 1001.6
20260504201631 84 11 3.5 14.8 0.00 0.00 0.00 47 1001.5
20260504200057 84 11 2.6 12.2 0.00 0.00 0.00 45 1001.5
20260504194631 84 11 4.3 15.6 0.00 0.00 0.00 45 1001.7
20260504193053 84 11 4.3 16.5 0.00 0.00 0.00 44 1001.7
20260504191501 83 230 5.2 11.3 0.00 0.00 0.00 47 1001.7
20260504190055 83 221 5.2 13.9 0.00 0.00 0.00 49 1001.8
20260504184526 83 11 5.2 13.9 0.00 0.00 0.00 47 1002.0
20260504183110 82 11 3.5 10.4 0.00 0.00 0.00 52 1002.0
20260504181511 82 11 3.5 11.3 0.00 0.00 0.00 48 1002.2
20260504180103 81 245 3.5 13.0 0.00 0.00 0.00 50 1002.3
20260504174515 80 228 3.5 13.9 0.00 0.00 0.00 51 1002.6
20260504173109 79 11 4.3 11.3 0.00 0.00 0.00 52 1002.6
20260504171523 79 210 5.2 12.2 0.00 0.00 0.00 50 1002.7
20260504170106 79 11 3.5 11.3 0.00 0.00 0.00 51 1002.9
20260504160111 75 11 4.3 13.0 0.00 0.00 0.00 55 1002.8
20260504150120 71 11 6.1 21.7 0.00 0.00 0.00 57 1003.0
20260504140130 65 11 2.6 12.2 0.00 0.00 0.00 64 1003.3
20260504081519 64 209 3.5 11.3 0.00 0.00 0.00 59 1004.4